CAPE
68 0 0 0 0 118 118 151 28 89 309 377 238 212 182 132 80 324 230 239 541 896 184 442 706 887 744 934 1206 1255 731 625 450 374 367 496 418 336 285 214 202 202 128
20 77 33 59 27 83 78 0 0 21 270 425 297 238 97 152 69 269 335 155 414 646 786 446 701 566 723 852 751 1121 854 831 881 654 541 576 477 471 493 451 388 341 259
3 94 83 31 29 0 0 0 0 86 71 467 558 443 156 3 7 199 319 509 502 775 894 437 496 574 754 1241 1272 1195 1051 989 1106 1159 936 1026 945 954 655 466 440 469 447
0 3 138 67 6 0 0 0 0 0 66 453 483 388 38 0 8 507 239 359 632 436 646 693 588 865 1199 1689 1597 1457 1340 1217 1077 1038 1159 1096 1049 944 910 823 755 618 611
59 0 108 104 37 0 0 0 47 107 312 543 592 357 24 112 34 53 268 705 609 734 348 552 770 1078 1430 1436 1257 1237 1245 1237 1173 1095 1132 1027 1010 984 820 744 804 732 610
96 0 109 89 115 0 0 0 42 242 428 611 401 83 138 76 84 217 308 420 114 48 7 123 239 501 681 777 828 964 1032 1076 925 971 1051 915 800 760 810 724 644 586 566
15 54 22 100 74 0 0 0 192 511 456 526 290 155 69 82 199 221 231 167 0 2 55 21 0 0 30 168 351 364 483 746 764 714 725 679 701 671 650 707 699 683 473
0 0 0 87 79 0 0 13 207 618 637 530 243 31 46 81 157 246 348 290 137 0 0 0 0 0 0 0 68 100 185 166 263 306 204 289 433 505 476 438 448 497 535
0 0 0 0 83 45 0 7 240 723 560 395 415 111 24 70 109 158 238 190 70 0 0 0 0 0 0 0 0 0 1 4 4 3 4 22 18 64 97 90 124 166 197
0 0 0 0 0 38 0 0 493 699 550 350 393 365 212 85 101 214 225 202 17 0 0 0 0 0 0 0 0 0 0 0 1 3 7 4 4 6 6 3 1 7 10
0 0 0 0 0 0 0 30 598 553 523 477 506 323 373 310 65 114 211 203 2 0 0 0 0 0 0 0 0 0 0 0 0 0 0 0 1 2 2 5 8 2 4
0 0 0 0 0 0 0 290 562 503 572 476 408 163 229 106 233 149 104 124 40 2 4 1 0 0 0 0 0 0 0 0 0 0 0 0 0 0 0 0 0 0 1
26 14 9 1 8 12 67 705 675 649 429 118 25 56 129 174 68 99 103 27 15 20 15 1 0 0 0 0 0 0 0 0 0 0 0 0 0 0 0 0 0 0 0
42 58 44 20 36 205 635 720 633 422 285 21 0 0 0 16 57 76 62 53 23 27 22 2 0 0 0 0 0 0 0 0 0 0 0 0 0 0 0 0 0 0 0
95 183 135 169 176 586 778 407 114 8 0 0 0 0 0 0 0 2 63 85 7 4 0 0 0 0 0 0 0 0 0 0 0 0 0 0 0 0 0 0 0 0 0
310 489 608 556 664 592 283 6 0 0 0 0 0 0 0 0 0 0 0 53 4 2 0 0 0 0 2 0 0 0 0 0 0 0 0 0 0 0 0 0 0 0 0
144 180 457 466 339 237 2 0 0 0 0 0 0 0 0 0 0 0 0 0 0 0 0 0 0 0 1 0 0 0 0 0 0 0 0 0 0 0 0 0 0 0 0
127 203 393 171 92 9 0 0 0 0 0 0 0 0 0 0 0 0 0 0 0 0 0 0 0 0 0 0 0 0 0 0 0 0 0 0 0 0 0 0 0 0 0
313 291 124 78 5 0 0 0 0 0 0 0 0 0 0 0 0 0 0 0 0 0 0 0 0 0 0 0 0 0 0 0 0 0 0 0 0 0 0 0 0 0 0
215 140 79 7 0 0 0 0 0 0 0 0 0 0 0 0 0 0 0 0 0 0 0 0 0 0 0 0 0 0 0 0 0 0 0 0 0 0 0 0 0 0 0
267 17 12 0 0 0 0 0 0 0 0 0 0 0 0 0 0 0 0 0 0 0 0 0 0 0 0 0 0 0 0 0 0 0 0 0 0 0 0 0 0 0 0
276 38 52 0 0 0 0 0 0 0 0 0 0 0 0 0 0 0 0 0 0 0 0 0 0 0 0 0 0 0 0 0 0 0 0 0 0 0 0 0 0 0 0
119 23 1 0 0 0 0 0 0 0 0 0 0 0 0 0 0 0 0 0 0 0 0 0 0 0 0 0 0 0 0 0 0 0 0 0 0 0 0 0 0 0 0
167 47 2 0 0 0 0 0 0 0 0 0 0 0 0 0 0 0 0 0 0 0 0 0 0 0 0 0 0 0 0 0 0 0 0 0 0 0 0 0 0 0 0
68 1 0 0 0 0 0 0 0 0 0 0 0 0 0 0 0 0 0 0 0 0 0 0 0 0 0 0 0 0 0 0 0 0 0 0 0 0 0 0 0 0 0
34 0 0 0 0 0 0 0 0 0 0 0 0 0 0 0 0 0 0 0 0 0 0 0 0 0 0 0 0 0 0 0 0 0 0 0 0 0 0 0 0 0 0
CIN
-71 -0 -0 -0 -0 -65 -60 -50 -68 -65 -60 -71 -85 -90 -115 -109 -112 -96 -117 -134 -94 -46 -77 -65 -39 -20 -19 -13 -5 -2 -5 -8 -12 -15 -8 -0 -0 -0 -0 -0 -0 -0 -0
-43 -62 -36 -34 -70 -59 -47 -0 -0 -88 -62 -66 -71 -120 -152 -108 -131 -88 -116 -145 -99 -59 -33 -52 -31 -40 -32 -24 -23 -2 -5 -4 -1 -4 -5 -2 -3 -0 -0 -0 -1 -6 -53
-20 -53 -62 -59 -69 -5 -0 -0 -0 -68 -71 -59 -67 -103 -135 -70 -186 -102 -96 -99 -78 -42 -14 -36 -21 -37 -27 -6 -8 -13 -11 -13 -4 -0 -2 -0 -0 -0 -0 -2 -0 -0 -0
-0 -44 -39 -71 -75 -0 -0 -0 -0 -0 -93 -58 -76 -109 -81 -0 -33 -74 -101 -84 -61 -59 -41 -20 -25 -21 -7 -0 -0 -0 -0 -0 -1 -0 -0 -0 -0 -2 -0 -1 -0 -0 -0
-74 -0 -47 -60 -90 -0 -0 -0 -128 -97 -68 -51 -72 -119 -145 -179 -106 -188 -112 -77 -81 -58 -78 -49 -9 -2 -0 -0 -0 -0 -0 -0 -0 -1 -0 -0 -0 -0 -2 -6 -0 -2 -10
-70 -0 -51 -66 -85 -0 -0 -0 -122 -84 -79 -63 -77 -142 -151 -211 -205 -136 -123 -111 -187 -264 -245 -123 -76 -31 -19 -18 -9 -8 -7 -3 -5 -0 -0 -0 -0 -0 -0 -3 -6 -3 -4
-139 -60 -13 -58 -85 -0 -0 -0 -87 -62 -60 -64 -48 -84 -140 -158 -121 -113 -114 -147 -1 -126 -229 -279 -1 -1 -335 -96 -43 -51 -26 -1 -0 -0 -0 -1 -0 -0 -0 -1 -0 -0 -0
-0 -0 -0 -50 -65 -0 -0 -37 -73 -43 -51 -56 -44 -103 -109 -111 -85 -56 -46 -80 -204 -0 -0 -0 -0 -0 -0 -0 -219 -181 -105 -99 -55 -50 -109 -102 -72 -56 -47 -30 -5 -0 -0
-0 -0 -0 -0 -58 -74 -0 -82 -65 -23 -38 -48 -48 -64 -190 -163 -110 -77 -64 -131 -279 -0 -0 -0 -0 -0 -0 -0 -0 -0 -0 -162 -0 -0 -0 -328 -370 -316 -282 -258 -174 -93 -43
-0 -0 -0 -0 -0 -86 -0 -0 -39 -24 -37 -42 -47 -52 -76 -184 -155 -71 -75 -117 -348 -0 -0 -0 -0 -0 -0 -0 -0 -0 -0 -0 -0 -0 -0 -0 -0 -0 -0 -0 -0 -0 -49
-0 -0 -0 -0 -0 -0 -0 -51 -26 -26 -33 -36 -30 -48 -43 -62 -285 -193 -84 -93 -63 -0 -0 -0 -0 -0 -0 -0 -0 -0 -0 -0 -0 -0 -0 -0 -0 -0 -0 -0 -0 -1 -2
-0 -0 -0 -0 -0 -0 -0 -40 -27 -29 -23 -30 -37 -99 -53 -193 -108 -174 -206 -173 -289 -38 -71 -36 -0 -0 -0 -0 -0 -0 -0 -0 -0 -0 -0 -0 -0 -0 -0 -0 -0 -0 -0
-49 -37 -50 -75 -78 -121 -77 -17 -15 -13 -27 -116 -275 -232 -184 -164 -333 -280 -264 -350 -24 -21 -21 -5 -0 -0 -0 -0 -0 -0 -0 -0 -0 -0 -0 -0 -0 -0 -0 -0 -0 -0 -0
-51 -57 -78 -103 -107 -48 -27 -15 -20 -23 -45 -287 -0 -0 -55 -327 -376 -340 -356 -324 -308 -4 -4 -1 -0 -0 -0 -0 -0 -0 -0 -0 -0 -0 -0 -0 -0 -0 -0 -0 -0 -0 -0
-55 -39 -52 -46 -58 -37 -22 -44 -94 -198 -0 -0 -0 -0 -0 -0 -0 -106 -372 -345 -18 -21 -0 -0 -0 -0 -0 -0 -0 -0 -0 -0 -0 -0 -0 -0 -0 -0 -0 -0 -0 -0 -0
-33 -25 -19 -23 -26 -36 -69 -119 -0 -0 -0 -0 -0 -0 -0 -0 -0 -0 -0 -401 -37 -32 -6 -0 -0 -0 -32 -0 -0 -0 -0 -0 -0 -0 -0 -0 -0 -0 -0 -0 -0 -0 -0
-39 -58 -25 -39 -54 -69 -41 -0 -0 -0 -0 -0 -0 -0 -0 -0 -0 -0 -0 -0 -0 -0 -0 -0 -0 -0 -10 -0 -0 -0 -0 -0 -0 -0 -0 -0 -0 -0 -0 -0 -0 -0 -0
-60 -40 -53 -80 -84 -139 -16 -0 -0 -0 -0 -0 -0 -0 -0 -0 -0 -0 -0 -0 -0 -0 -0 -0 -0 -0 -0 -0 -0 -0 -0 -0 -0 -0 -0 -0 -0 -0 -0 -0 -0 -0 -0
-43 -67 -75 -88 -112 -0 -0 -0 -0 -0 -0 -0 -0 -0 -0 -0 -0 -0 -0 -0 -0 -0 -0 -0 -0 -0 -0 -0 -0 -0 -0 -0 -0 -0 -0 -0 -0 -0 -0 -0 -0 -0 -0
-48 -63 -97 -120 -0 -0 -0 -0 -0 -0 -0 -0 -0 -0 -0 -0 -0 -0 -0 -0 -0 -0 -0 -0 -0 -0 -0 -0 -0 -0 -0 -0 -0 -0 -0 -0 -0 -0 -0 -0 -0 -0 -0
-62 -87 -131 -0 -0 -0 -0 -0 -0 -0 -0 -0 -0 -0 -0 -0 -0 -0 -0 -0 -0 -0 -0 -0 -0 -0 -0 -0 -0 -0 -0 -0 -0 -0 -0 -0 -0 -0 -0 -0 -0 -0 -0
-52 -131 -230 -5 -0 -0 -0 -0 -0 -0 -0 -0 -0 -0 -0 -0 -0 -0 -0 -0 -0 -0 -0 -0 -0 -0 -0 -0 -0 -0 -0 -0 -0 -0 -0 -0 -0 -0 -0 -0 -0 -0 -0
-113 -224 -274 -0 -0 -0 -0 -0 -0 -0 -0 -0 -0 -0 -0 -0 -0 -0 -0 -0 -0 -0 -0 -0 -0 -0 -0 -0 -0 -0 -0 -0 -0 -0 -0 -0 -0 -0 -0 -0 -0 -0 -0
-140 -214 -119 -0 -0 -0 -0 -0 -0 -0 -0 -0 -0 -0 -0 -0 -0 -0 -0 -0 -0 -0 -0 -0 -0 -0 -0 -0 -0 -0 -0 -0 -0 -0 -0 -0 -0 -0 -0 -0 -0 -0 -0
-144 -58 -0 -0 -0 -0 -0 -0 -0 -0 -0 -0 -0 -0 -0 -0 -0 -0 -0 -0 -0 -0 -0 -0 -0 -0 -0 -0 -0 -0 -0 -0 -0 -0 -0 -0 -0 -0 -0 -0 -0 -0 -0
-203 -0 -0 -0 -0 -0 -0 -0 -0 -0 -0 -0 -0 -0 -0 -0 -0 -0 -0 -0 -0 -0 -0 -0 -0 -0 -0 -0 -0 -0 -0 -0 -0 -0 -0 -0 -0 -0 -0 -0 -0 -0 -0
Wind_Speed
17 16 16 16 15 14 12 20 22 19 23 19 16 18 17 15 14 15 11 6 7 6 9 6 5 6 7 8 8 7 7 5 6 7 8 8 8 7 8 8 9 12 16
13 14 15 15 15 17 18 21 24 24 26 19 13 16 15 18 20 18 13 10 7 8 6 6 6 10 7 7 6 6 6 6 8 8 8 6 5 4 5 6 7 10 14
13 13 13 14 16 17 19 20 22 26 27 18 14 10 9 19 18 8 8 8 7 12 12 9 10 10 9 7 10 2 8 13 12 8 5 6 5 2 2 2 2 2 3
12 14 13 15 16 18 20 22 23 25 26 14 8 12 12 14 12 9 8 9 17 16 17 6 6 13 20 23 26 29 28 28 28 28 29 29 29 29 23 16 12 9 4
14 14 14 15 17 20 21 21 21 24 19 5 9 17 14 7 7 9 7 25 22 22 23 24 21 24 27 29 29 28 28 28 28 28 29 30 31 30 30 30 28 27 25
17 16 15 16 17 20 20 20 20 17 16 10 19 20 12 13 8 17 21 25 27 27 25 26 25 24 26 27 28 28 29 29 29 30 30 31 32 32 31 30 29 29 28
21 19 17 17 18 19 20 21 20 16 11 8 13 11 12 13 11 8 22 25 26 27 27 28 27 27 25 28 28 28 28 28 29 29 30 31 31 32 32 32 31 30 29
23 21 20 20 20 21 21 21 22 12 10 9 11 13 13 10 10 11 21 24 25 25 27 28 28 27 27 27 28 29 30 30 30 30 29 30 31 32 32 32 32 32 32
28 24 23 22 22 21 22 22 17 5 9 11 13 13 15 14 14 9 8 22 24 24 25 27 27 27 28 28 28 28 29 29 30 30 30 31 31 31 31 31 32 32 32
28 25 26 24 24 22 22 21 18 13 7 15 13 13 14 17 15 16 13 9 22 23 24 25 26 28 28 29 29 29 29 29 29 30 30 31 31 31 32 32 32 32 32
31 30 30 27 26 25 23 21 19 16 17 14 13 14 15 16 16 15 16 16 19 21 22 24 25 26 28 28 29 29 30 30 30 30 31 31 32 33 33 34 34 34 33
20 31 31 29 28 26 24 22 20 17 17 14 13 15 15 15 15 15 15 15 16 15 19 21 23 24 26 27 29 30 30 30 30 31 31 32 33 33 34 34 34 34 33
20 25 28 28 26 25 23 21 20 18 17 14 15 16 16 16 14 13 14 15 14 15 14 18 19 22 23 25 27 29 30 30 30 31 32 33 33 34 35 35 35 35 34
23 23 25 26 25 23 23 20 20 18 18 16 16 16 16 16 14 13 13 14 15 14 13 14 15 18 20 21 24 26 28 29 29 30 31 32 33 34 35 36 36 36 36
24 25 25 25 24 23 21 12 19 17 18 18 17 16 14 14 14 14 12 13 13 12 12 12 14 14 16 18 21 23 25 26 27 28 29 31 32 34 35 36 36 37 37
22 21 23 22 22 19 10 13 16 16 14 15 15 13 13 14 14 15 14 13 11 11 12 13 13 14 15 16 18 20 22 24 25 26 27 28 30 31 33 35 36 36 37
21 24 24 22 20 18 9 13 15 14 13 13 13 13 14 15 15 14 13 12 12 12 14 15 15 15 14 15 16 17 18 21 23 23 23 25 27 29 31 32 33 34 35
21 20 13 17 15 13 14 15 13 13 11 11 11 13 14 15 15 14 13 14 15 15 16 16 16 16 14 13 13 13 15 18 19 19 20 22 23 26 27 29 30 31 33
12 8 7 12 15 19 17 17 12 11 10 10 12 14 15 15 16 17 17 18 17 16 16 16 17 18 18 15 13 12 12 16 16 15 16 18 20 22 23 25 26 29 30
4 6 8 9 21 20 19 15 10 9 9 10 13 19 18 17 17 17 17 17 17 17 16 16 17 17 18 18 17 16 14 16 19 17 15 16 17 19 20 21 23 26 28
8 10 3 22 18 19 21 14 9 7 8 9 11 14 18 17 17 17 16 16 16 15 15 15 16 15 16 16 14 14 15 16 18 21 18 18 15 14 15 17 20 25 27
22 8 27 20 21 23 24 13 6 7 7 11 14 15 18 18 18 19 18 16 15 13 13 14 14 15 16 16 15 15 15 14 16 21 19 20 21 18 13 15 18 23 26
29 29 23 23 25 25 29 6 10 7 9 15 19 19 18 19 20 20 20 20 19 17 15 14 15 16 16 15 15 16 16 16 17 17 16 20 21 22 17 14 17 21 25
28 27 26 27 29 28 27 21 8 8 15 20 20 18 19 19 19 20 21 21 21 21 21 20 20 19 18 17 17 17 18 19 19 20 17 21 20 21 18 15 15 18 22
29 28 28 30 31 29 23 14 7 12 20 20 20 18 18 17 17 18 20 20 21 21 20 20 20 19 19 20 18 17 15 16 18 20 19 20 22 20 19 16 14 16 19
30 29 30 30 30 28 25 15 11 15 20 20 19 18 17 15 15 15 16 17 17 17 18 18 17 16 17 17 18 17 16 17 16 17 17 22 23 21 22 21 19 19 20
Wind_Direction
262 269 255 220 234 271 273 358 354 56 29 45 52 48 49 57 81 92 118 135 149 155 121 148 174 208 183 179 174 174 189 184 148 136 141 165 181 181 180 189 203 211 216
301 300 307 308 302 309 346 351 356 338 4 40 63 55 65 70 81 91 102 112 131 169 154 135 150 115 175 156 141 145 172 166 138 126 109 119 131 147 185 210 221 231 243
308 314 317 336 329 351 336 318 328 336 344 47 72 87 102 74 95 134 134 126 127 127 121 126 117 123 135 155 120 214 127 111 108 117 138 112 112 153 199 194 180 211 270
312 319 323 317 334 339 321 314 325 324 337 69 106 100 111 119 115 137 128 128 107 105 100 149 140 115 96 85 69 35 31 38 28 18 20 16 20 22 37 49 56 65 67
300 318 321 325 328 324 315 312 309 329 48 127 123 90 75 171 165 141 164 74 83 92 85 82 12 81 64 43 35 26 18 14 11 9 9 10 13 20 20 20 27 31 35
290 300 308 315 315 315 309 307 298 287 63 97 76 55 310 328 311 32 82 45 47 64 80 72 78 63 21 25 30 23 23 19 16 15 13 15 15 15 17 23 22 22 24
273 287 291 296 304 313 306 307 298 285 105 247 129 176 318 329 324 303 34 57 42 55 60 52 53 51 58 33 21 17 11 9 9 11 11 10 12 13 11 14 18 23 25
263 274 278 283 293 297 300 303 313 290 136 239 243 188 182 197 303 314 31 53 48 55 52 41 40 42 40 37 24 22 21 21 15 12 9 8 9 10 12 12 13 13 12
255 269 270 273 281 296 297 296 265 327 193 210 243 198 185 166 164 222 283 47 45 44 46 36 32 31 28 27 27 22 18 17 18 18 16 15 14 13 11 10 10 11 10
260 269 262 263 266 286 280 269 254 200 170 246 203 195 138 144 146 129 165 181 39 43 38 38 35 33 29 28 26 22 22 23 24 25 23 22 21 20 20 19 18 15 12
260 255 251 254 261 266 268 256 253 211 248 228 205 179 64 122 115 117 124 110 67 63 57 47 43 37 34 35 33 31 29 31 31 29 29 28 28 27 25 23 23 22 20
274 238 237 251 249 252 249 253 262 226 245 212 170 186 166 141 115 102 101 110 96 100 73 62 53 53 48 46 43 38 36 35 34 34 33 31 28 26 26 25 26 25 19
268 252 238 243 243 246 242 249 252 231 231 181 193 196 182 153 105 88 88 101 102 108 100 79 70 57 55 53 48 44 40 38 38 37 37 37 31 28 28 32 30 28 21
262 257 250 241 242 248 248 266 243 224 224 206 234 218 198 135 91 80 93 107 86 89 97 86 75 67 60 57 53 47 44 42 39 40 42 37 33 33 35 37 36 34 25
250 252 241 245 248 249 260 308 246 261 245 247 250 211 161 90 65 89 106 116 97 86 76 82 76 76 66 62 58 52 49 43 41 43 39 39 34 35 38 42 40 32 27
258 252 245 252 255 266 315 288 266 270 294 283 278 2 30 47 50 65 80 116 112 86 72 85 77 72 66 63 65 55 48 41 42 44 43 41 40 43 43 41 38 35 30
259 245 249 255 261 265 304 280 275 287 296 308 319 23 28 45 57 74 99 94 94 87 74 67 66 65 70 72 68 65 55 46 44 49 49 46 43 42 40 41 39 40 37
258 256 276 261 262 275 276 274 280 282 317 338 3 29 48 64 51 91 87 77 85 81 76 62 60 61 66 72 82 79 59 51 50 52 56 49 47 42 44 41 42 40 37
269 269 272 269 267 250 256 248 275 298 320 351 23 65 84 81 78 77 76 73 75 75 71 70 61 56 46 58 71 66 72 46 51 62 60 52 51 46 45 45 43 38 35
271 274 278 283 237 243 239 247 282 315 337 8 55 134 117 101 87 77 84 83 74 73 72 63 55 48 44 48 51 52 58 41 34 51 56 58 53 48 47 47 43 36 33
262 273 324 228 248 238 225 249 285 341 13 5 17 64 104 92 87 85 89 92 86 77 77 61 48 44 35 39 57 59 55 49 44 32 43 43 47 49 48 46 42 33 30
231 266 204 237 230 219 209 249 317 25 14 50 62 58 69 66 68 75 74 79 83 79 68 59 51 43 40 47 56 55 48 51 41 26 33 31 33 34 45 43 39 32 28
200 202 227 224 212 210 183 100 79 30 58 85 97 87 72 77 69 66 56 58 57 59 63 60 52 55 58 65 60 51 50 45 36 38 41 27 29 23 35 42 37 30 26
209 217 217 211 199 200 159 137 76 64 101 115 114 99 104 90 86 73 66 60 59 54 50 47 49 57 58 58 57 59 49 47 43 36 43 23 29 30 40 39 37 33 26
211 215 209 194 186 187 152 126 86 100 127 132 131 121 116 100 93 81 71 62 58 47 52 46 52 59 59 49 55 52 51 42 37 33 39 34 29 31 35 34 31 25 20
211 209 199 188 182 174 163 138 121 123 135 141 146 138 128 109 106 95 72 67 60 59 60 50 42 58 52 48 48 53 55 43 42 34 40 21 27 27 19 26 26 19 16